Year,Month,Day,Hour,Minute,Value (Times are PST for temperature in C)
2013,05,04,00,00,10.10
2013,05,04,00,01,10.10
2013,05,04,00,02,10.10
2013,05,04,00,03,10.10
2013,05,04,00,04,10.10
2013,05,04,00,05,10.00
2013,05,04,00,06,10.00
2013,05,04,00,07,10.00
2013,05,04,00,08,9.90
2013,05,04,00,09,9.90
2013,05,04,00,10,9.90
2013,05,04,00,11,9.90
2013,05,04,00,12,9.90
2013,05,04,00,13,9.90
2013,05,04,00,14,9.90
2013,05,04,00,15,9.90
2013,05,04,00,16,9.90
2013,05,04,00,17,9.90
2013,05,04,00,18,9.80
2013,05,04,00,19,9.80
2013,05,04,00,20,9.80
2013,05,04,00,21,9.80
2013,05,04,00,22,9.80
2013,05,04,00,23,9.70
2013,05,04,00,24,9.70
2013,05,04,00,25,9.70
2013,05,04,00,26,9.60
2013,05,04,00,27,9.60
2013,05,04,00,28,9.60
2013,05,04,00,29,9.60
2013,05,04,00,30,9.60
2013,05,04,00,31,9.50
2013,05,04,00,32,9.50
2013,05,04,00,33,9.50
2013,05,04,00,34,9.50
2013,05,04,00,35,9.50
2013,05,04,00,36,9.40
2013,05,04,00,37,9.40
2013,05,04,00,38,9.40
2013,05,04,00,39,9.40
2013,05,04,00,40,9.40
2013,05,04,00,41,9.40
2013,05,04,00,42,9.50
2013,05,04,00,43,9.50
2013,05,04,00,44,9.50
2013,05,04,00,45,9.50
2013,05,04,00,46,9.50
2013,05,04,00,47,9.40
2013,05,04,00,48,9.40
2013,05,04,00,49,9.40
2013,05,04,00,50,9.30
2013,05,04,00,51,9.30
2013,05,04,00,52,9.30
2013,05,04,00,53,9.30
2013,05,04,00,54,9.30
2013,05,04,00,55,9.30
2013,05,04,00,56,9.30
2013,05,04,00,57,9.20
2013,05,04,00,58,9.20
2013,05,04,00,59,9.20
2013,05,04,01,00,9.20
2013,05,04,01,01,9.20
2013,05,04,01,02,9.20
2013,05,04,01,03,9.20
2013,05,04,01,04,9.20
2013,05,04,01,05,9.10
2013,05,04,01,06,9.10
2013,05,04,01,07,9.10
2013,05,04,01,08,9.10
2013,05,04,01,09,9.10
2013,05,04,01,10,9.10
2013,05,04,01,11,9.10
2013,05,04,01,12,9.10
2013,05,04,01,13,9.00
2013,05,04,01,14,9.00
2013,05,04,01,15,9.00
2013,05,04,01,16,8.90
2013,05,04,01,17,8.90
2013,05,04,01,18,8.90
2013,05,04,01,19,8.90
2013,05,04,01,20,8.90
2013,05,04,01,21,8.90
2013,05,04,01,22,8.90
2013,05,04,01,23,8.90
2013,05,04,01,24,8.90
2013,05,04,01,25,8.90
2013,05,04,01,26,8.90
2013,05,04,01,27,8.90
2013,05,04,01,28,8.80
2013,05,04,01,29,8.80
2013,05,04,01,30,8.80
2013,05,04,01,31,8.80
2013,05,04,01,32,8.80
2013,05,04,01,33,8.80
2013,05,04,01,34,8.70
2013,05,04,01,35,8.70
2013,05,04,01,36,8.70
2013,05,04,01,37,8.70
2013,05,04,01,38,8.70
2013,05,04,01,39,8.70
2013,05,04,01,40,8.70
2013,05,04,01,41,8.70
2013,05,04,01,42,8.60
2013,05,04,01,43,8.60
2013,05,04,01,44,8.60
2013,05,04,01,45,8.60
2013,05,04,01,46,8.60
2013,05,04,01,47,8.50
2013,05,04,01,48,8.50
2013,05,04,01,49,8.50
2013,05,04,01,50,8.50
2013,05,04,01,51,8.50
2013,05,04,01,52,8.50
2013,05,04,01,53,8.50
2013,05,04,01,54,8.50
2013,05,04,01,55,8.50
2013,05,04,01,56,8.50
2013,05,04,01,57,8.40
2013,05,04,01,58,8.40
2013,05,04,01,59,8.40
2013,05,04,02,00,8.40
2013,05,04,02,01,8.40
2013,05,04,02,02,8.40
2013,05,04,02,03,8.40
2013,05,04,02,04,8.40
2013,05,04,02,05,8.40
2013,05,04,02,06,8.40
2013,05,04,02,07,8.40
2013,05,04,02,08,8.40
2013,05,04,02,09,8.40
2013,05,04,02,10,8.30
2013,05,04,02,11,8.30
2013,05,04,02,12,8.30
2013,05,04,02,13,8.30
2013,05,04,02,14,8.30
2013,05,04,02,15,8.20
2013,05,04,02,16,8.20
2013,05,04,02,17,8.20
2013,05,04,02,18,8.20
2013,05,04,02,19,8.20
2013,05,04,02,20,8.20
2013,05,04,02,21,8.20
2013,05,04,02,22,8.20
2013,05,04,02,23,8.20
2013,05,04,02,24,8.20
2013,05,04,02,25,8.30
2013,05,04,02,26,8.30
2013,05,04,02,27,8.30
2013,05,04,02,28,8.30
2013,05,04,02,29,8.30
2013,05,04,02,30,8.30
2013,05,04,02,31,8.30
2013,05,04,02,32,8.30
2013,05,04,02,33,8.30
2013,05,04,02,34,8.30
2013,05,04,02,35,8.30
2013,05,04,02,36,8.30
2013,05,04,02,37,8.30
2013,05,04,02,38,8.30
2013,05,04,02,39,8.20
2013,05,04,02,40,8.20
2013,05,04,02,41,8.10
2013,05,04,02,42,8.10
2013,05,04,02,43,8.00
2013,05,04,02,44,8.00
2013,05,04,02,45,7.90
2013,05,04,02,46,7.90
2013,05,04,02,47,7.80
2013,05,04,02,48,7.80
2013,05,04,02,49,7.80
2013,05,04,02,50,7.80
2013,05,04,02,51,7.80
2013,05,04,02,52,7.80
2013,05,04,02,53,7.80
2013,05,04,02,54,7.80
2013,05,04,02,55,7.80
2013,05,04,02,56,7.80
2013,05,04,02,57,7.80
2013,05,04,02,58,7.80
2013,05,04,02,59,7.80
2013,05,04,03,00,7.70
2013,05,04,03,01,7.70
2013,05,04,03,02,7.70
2013,05,04,03,03,7.70
2013,05,04,03,04,7.70
2013,05,04,03,05,7.60
2013,05,04,03,06,7.60
2013,05,04,03,07,7.60
2013,05,04,03,08,7.60
2013,05,04,03,09,7.60
2013,05,04,03,10,7.60
2013,05,04,03,11,7.60
2013,05,04,03,12,7.60
2013,05,04,03,13,7.60
2013,05,04,03,14,7.50
2013,05,04,03,15,7.50
2013,05,04,03,16,7.50
2013,05,04,03,17,7.50
2013,05,04,03,18,7.50
2013,05,04,03,19,7.40
2013,05,04,03,20,7.50
2013,05,04,03,21,7.50
2013,05,04,03,22,7.50
2013,05,04,03,23,7.50
2013,05,04,03,24,7.50
2013,05,04,03,25,7.50
2013,05,04,03,26,7.50
2013,05,04,03,27,7.50
2013,05,04,03,28,7.40
2013,05,04,03,29,7.40
2013,05,04,03,30,7.40
2013,05,04,03,31,7.40
2013,05,04,03,32,7.40
2013,05,04,03,33,7.40
2013,05,04,03,34,7.40
2013,05,04,03,35,7.40
2013,05,04,03,36,7.40
2013,05,04,03,37,7.40
2013,05,04,03,38,7.30
2013,05,04,03,39,7.40
2013,05,04,03,40,7.40
2013,05,04,03,41,7.40
2013,05,04,03,42,7.30
2013,05,04,03,43,7.30
2013,05,04,03,44,7.30
2013,05,04,03,45,7.30
2013,05,04,03,46,7.30
2013,05,04,03,47,7.30
2013,05,04,03,48,7.30
2013,05,04,03,49,7.30
2013,05,04,03,50,7.30
2013,05,04,03,51,7.30
2013,05,04,03,52,7.30
2013,05,04,03,53,7.30
2013,05,04,03,54,7.30
2013,05,04,03,55,7.30
2013,05,04,03,56,7.30
2013,05,04,03,57,7.30
2013,05,04,03,58,7.30
2013,05,04,03,59,7.20
2013,05,04,04,00,7.20
2013,05,04,04,01,7.20
2013,05,04,04,02,7.20
2013,05,04,04,03,7.20
2013,05,04,04,04,7.20
2013,05,04,04,05,7.20
2013,05,04,04,06,7.20
2013,05,04,04,07,7.20
2013,05,04,04,08,7.10
2013,05,04,04,09,7.10
2013,05,04,04,10,7.10
2013,05,04,04,11,7.10
2013,05,04,04,12,7.10
2013,05,04,04,13,7.10
2013,05,04,04,14,7.10
2013,05,04,04,15,7.00
2013,05,04,04,16,7.00
2013,05,04,04,17,7.00
2013,05,04,04,18,7.00
2013,05,04,04,19,7.00
2013,05,04,04,20,6.90
2013,05,04,04,21,6.90
2013,05,04,04,22,6.90
2013,05,04,04,23,6.80
2013,05,04,04,24,6.80
2013,05,04,04,25,6.80
2013,05,04,04,26,6.80
2013,05,04,04,27,6.70
2013,05,04,04,28,6.70
2013,05,04,04,29,6.70
2013,05,04,04,30,6.70
2013,05,04,04,31,6.70
2013,05,04,04,32,6.70
2013,05,04,04,33,6.70
2013,05,04,04,34,6.70
2013,05,04,04,35,6.60
2013,05,04,04,36,6.70
2013,05,04,04,37,6.60
2013,05,04,04,38,6.60
2013,05,04,04,39,6.60
2013,05,04,04,40,6.60
2013,05,04,04,41,6.60
2013,05,04,04,42,6.60
2013,05,04,04,43,6.70
2013,05,04,04,44,6.70
2013,05,04,04,45,6.70
2013,05,04,04,46,6.70
2013,05,04,04,47,6.70
2013,05,04,04,48,6.70
2013,05,04,04,49,6.70
2013,05,04,04,50,6.70
2013,05,04,04,51,6.70
2013,05,04,04,52,6.70
2013,05,04,04,53,6.70
2013,05,04,04,54,6.70
2013,05,04,04,55,6.70
2013,05,04,04,56,6.70
2013,05,04,04,57,6.70
2013,05,04,04,58,6.60
2013,05,04,04,59,6.60
2013,05,04,05,00,6.60
2013,05,04,05,01,6.60
2013,05,04,05,02,6.50
2013,05,04,05,03,6.50
2013,05,04,05,04,6.50
2013,05,04,05,05,6.60
2013,05,04,05,06,6.60
2013,05,04,05,07,6.60
2013,05,04,05,08,6.50
2013,05,04,05,09,6.50
2013,05,04,05,10,6.50
2013,05,04,05,11,6.40
2013,05,04,05,12,6.40
2013,05,04,05,13,6.40
2013,05,04,05,14,6.40
2013,05,04,05,15,6.30
2013,05,04,05,16,6.40
2013,05,04,05,17,6.40
2013,05,04,05,18,6.40
2013,05,04,05,19,6.40
2013,05,04,05,20,6.40
2013,05,04,05,21,6.40
2013,05,04,05,22,6.40
2013,05,04,05,23,6.40
2013,05,04,05,24,6.40
2013,05,04,05,25,6.40
2013,05,04,05,26,6.30
2013,05,04,05,27,6.30
2013,05,04,05,28,6.30
2013,05,04,05,29,6.30
2013,05,04,05,30,6.30
2013,05,04,05,31,6.30
2013,05,04,05,32,6.30
2013,05,04,05,33,6.30
2013,05,04,05,34,6.30
2013,05,04,05,35,6.30
2013,05,04,05,36,6.30
2013,05,04,05,37,6.30
2013,05,04,05,38,6.30
2013,05,04,05,39,6.30
2013,05,04,05,40,6.30
2013,05,04,05,41,6.30
2013,05,04,05,42,6.30
2013,05,04,05,43,6.30
2013,05,04,05,44,6.30
2013,05,04,05,45,6.30
2013,05,04,05,46,6.30
2013,05,04,05,47,6.30
2013,05,04,05,48,6.30
2013,05,04,05,49,6.30
2013,05,04,05,50,6.30
2013,05,04,05,51,6.20
2013,05,04,05,52,6.20
2013,05,04,05,53,6.20
2013,05,04,05,54,6.20
2013,05,04,05,55,6.20
2013,05,04,05,56,6.20
2013,05,04,05,57,6.20
2013,05,04,05,58,6.20
2013,05,04,05,59,6.30
2013,05,04,06,00,6.30
2013,05,04,06,01,6.30
2013,05,04,06,02,6.30
2013,05,04,06,03,6.30
2013,05,04,06,04,6.30
2013,05,04,06,05,6.30
2013,05,04,06,06,6.30
2013,05,04,06,07,6.40
2013,05,04,06,08,6.40
2013,05,04,06,09,6.50
2013,05,04,06,10,6.50
2013,05,04,06,11,6.60
2013,05,04,06,12,6.60
2013,05,04,06,13,6.60
2013,05,04,06,14,6.60
2013,05,04,06,15,6.60
2013,05,04,06,16,6.70
2013,05,04,06,17,6.70
2013,05,04,06,18,6.70
2013,05,04,06,19,6.70
2013,05,04,06,20,6.70
2013,05,04,06,21,6.70
2013,05,04,06,22,6.70
2013,05,04,06,23,6.70
2013,05,04,06,24,6.80
2013,05,04,06,25,6.80
2013,05,04,06,26,6.90
2013,05,04,06,27,6.90
2013,05,04,06,28,7.00
2013,05,04,06,29,7.10
2013,05,04,06,30,7.10
2013,05,04,06,31,7.20
2013,05,04,06,32,7.20
2013,05,04,06,33,7.30
2013,05,04,06,34,7.40
2013,05,04,06,35,7.40
2013,05,04,06,36,7.50
2013,05,04,06,37,7.50
2013,05,04,06,38,7.50
2013,05,04,06,39,7.60
2013,05,04,06,40,7.60
2013,05,04,06,41,7.60
2013,05,04,06,42,7.60
2013,05,04,06,43,7.70
2013,05,04,06,44,7.70
2013,05,04,06,45,7.70
2013,05,04,06,46,7.70
2013,05,04,06,47,7.70
2013,05,04,06,48,7.70
2013,05,04,06,49,7.70
2013,05,04,06,50,7.70
2013,05,04,06,51,7.70
2013,05,04,06,52,7.80
2013,05,04,06,53,7.80
2013,05,04,06,54,7.90
2013,05,04,06,55,7.90
2013,05,04,06,56,8.00
2013,05,04,06,57,8.00
2013,05,04,06,58,8.10
2013,05,04,06,59,8.10
2013,05,04,07,00,8.10
2013,05,04,07,01,8.10
2013,05,04,07,02,8.10
2013,05,04,07,03,8.10
2013,05,04,07,04,8.10
2013,05,04,07,05,8.10
2013,05,04,07,06,8.20
2013,05,04,07,07,8.20
2013,05,04,07,08,8.20
2013,05,04,07,09,8.30
2013,05,04,07,10,8.30
2013,05,04,07,11,8.40
2013,05,04,07,12,8.40
2013,05,04,07,13,8.50
2013,05,04,07,14,8.50
2013,05,04,07,15,8.60
2013,05,04,07,16,8.60
2013,05,04,07,17,8.70
2013,05,04,07,18,8.70
2013,05,04,07,19,8.80
2013,05,04,07,20,8.80
2013,05,04,07,21,8.90
2013,05,04,07,22,9.00
2013,05,04,07,23,9.10
2013,05,04,07,24,9.20
2013,05,04,07,25,9.20
2013,05,04,07,26,9.30
2013,05,04,07,27,9.40
2013,05,04,07,28,9.50
2013,05,04,07,29,9.60
2013,05,04,07,30,9.70
2013,05,04,07,31,9.80
2013,05,04,07,32,9.90
2013,05,04,07,33,10.00
2013,05,04,07,34,10.10
2013,05,04,07,35,10.20
2013,05,04,07,36,10.30
2013,05,04,07,37,10.40
2013,05,04,07,38,10.60
2013,05,04,07,39,10.70
2013,05,04,07,40,10.90
2013,05,04,07,41,11.10
2013,05,04,07,42,11.30
2013,05,04,07,43,11.50
2013,05,04,07,44,11.60
2013,05,04,07,45,11.80
2013,05,04,07,46,12.00
2013,05,04,07,47,12.20
2013,05,04,07,48,12.30
2013,05,04,07,49,12.50
2013,05,04,07,50,12.70
2013,05,04,07,51,12.80
2013,05,04,07,52,13.00
2013,05,04,07,53,13.10
2013,05,04,07,54,13.20
2013,05,04,07,55,13.20
2013,05,04,07,56,13.30
2013,05,04,07,57,13.40
2013,05,04,07,58,13.50
2013,05,04,07,59,13.60
2013,05,04,08,00,13.60
2013,05,04,08,01,13.70
2013,05,04,08,02,13.80
2013,05,04,08,03,13.90
2013,05,04,08,04,14.00
2013,05,04,08,05,14.10
2013,05,04,08,06,14.20
2013,05,04,08,07,14.20
2013,05,04,08,08,14.30
2013,05,04,08,09,14.40
2013,05,04,08,10,14.50
2013,05,04,08,11,14.50
2013,05,04,08,12,14.60
2013,05,04,08,13,14.70
2013,05,04,08,14,14.80
2013,05,04,08,15,14.80
2013,05,04,08,16,14.90
2013,05,04,08,17,15.00
2013,05,04,08,18,15.10
2013,05,04,08,19,15.10
2013,05,04,08,20,15.30
2013,05,04,08,21,15.30
2013,05,04,08,22,15.40
2013,05,04,08,23,15.50
2013,05,04,08,24,15.50
2013,05,04,08,25,15.60
2013,05,04,08,26,15.60
2013,05,04,08,27,15.60
2013,05,04,08,28,15.60
2013,05,04,08,29,15.60
2013,05,04,08,30,15.60
2013,05,04,08,31,15.70
2013,05,04,08,32,15.70
2013,05,04,08,33,15.70
2013,05,04,08,34,15.70
2013,05,04,08,35,15.70
2013,05,04,08,36,15.70
2013,05,04,08,37,15.60
2013,05,04,08,38,15.60
2013,05,04,08,39,15.60
2013,05,04,08,40,15.50
2013,05,04,08,41,15.50
2013,05,04,08,42,15.40
2013,05,04,08,43,15.40
2013,05,04,08,44,15.50
2013,05,04,08,45,15.50
2013,05,04,08,46,15.60
2013,05,04,08,47,15.70
2013,05,04,08,48,15.70
2013,05,04,08,49,15.70
2013,05,04,08,50,15.70
2013,05,04,08,51,15.70
2013,05,04,08,52,15.70
2013,05,04,08,53,15.70
2013,05,04,08,54,15.70
2013,05,04,08,55,15.70
2013,05,04,08,56,15.70
2013,05,04,08,57,15.80
2013,05,04,08,58,15.80
2013,05,04,08,59,15.90
2013,05,04,09,00,15.90
2013,05,04,09,01,15.90
2013,05,04,09,02,16.00
2013,05,04,09,03,16.10
2013,05,04,09,04,16.00
2013,05,04,09,05,16.00
2013,05,04,09,06,15.90
2013,05,04,09,07,15.90
2013,05,04,09,08,15.80
2013,05,04,09,09,15.80
2013,05,04,09,10,15.80
2013,05,04,09,11,15.70
2013,05,04,09,12,15.70
2013,05,04,09,13,15.70
2013,05,04,09,14,15.70
2013,05,04,09,15,15.60
2013,05,04,09,16,15.60
2013,05,04,09,17,15.60
2013,05,04,09,18,15.60
2013,05,04,09,19,15.60
2013,05,04,09,20,15.70
2013,05,04,09,21,15.70
2013,05,04,09,22,15.70
2013,05,04,09,23,15.80
2013,05,04,09,24,15.90
2013,05,04,09,25,15.90
2013,05,04,09,26,16.00
2013,05,04,09,27,16.10
2013,05,04,09,28,16.00
2013,05,04,09,29,16.00
2013,05,04,09,30,16.10
2013,05,04,09,31,16.10
2013,05,04,09,32,16.10
2013,05,04,09,33,16.10
2013,05,04,09,34,16.10
2013,05,04,09,35,16.10
2013,05,04,09,36,16.20
2013,05,04,09,37,16.20
2013,05,04,09,38,16.20
2013,05,04,09,39,16.20
2013,05,04,09,40,16.20
2013,05,04,09,41,16.10
2013,05,04,09,42,16.20
2013,05,04,09,43,16.20
2013,05,04,09,44,16.30
2013,05,04,09,45,16.30
2013,05,04,09,46,16.30
2013,05,04,09,47,16.30
2013,05,04,09,48,16.30
2013,05,04,09,49,16.40
2013,05,04,09,50,16.40
2013,05,04,09,51,16.40
2013,05,04,09,52,16.40
2013,05,04,09,53,16.30
2013,05,04,09,54,16.30
2013,05,04,09,55,16.30
2013,05,04,09,56,16.40
2013,05,04,09,57,16.50
2013,05,04,09,58,16.40
2013,05,04,09,59,16.50
2013,05,04,10,00,16.50
2013,05,04,10,01,16.50
2013,05,04,10,02,16.60
2013,05,04,10,03,16.70
2013,05,04,10,04,16.70
2013,05,04,10,05,16.70
2013,05,04,10,06,16.80
2013,05,04,10,07,16.80
2013,05,04,10,08,16.90
2013,05,04,10,09,16.90
2013,05,04,10,10,16.90
2013,05,04,10,11,16.80
2013,05,04,10,12,16.70
2013,05,04,10,13,16.60
2013,05,04,10,14,16.60
2013,05,04,10,15,16.60
2013,05,04,10,16,16.60
2013,05,04,10,17,16.70
2013,05,04,10,18,16.80
2013,05,04,10,19,16.90
2013,05,04,10,20,17.10
2013,05,04,10,21,17.10
2013,05,04,10,22,17.10
2013,05,04,10,23,17.10
2013,05,04,10,24,17.20
2013,05,04,10,25,17.20
2013,05,04,10,26,17.20
2013,05,04,10,27,17.20
2013,05,04,10,28,17.20
2013,05,04,10,29,17.20
2013,05,04,10,30,17.10
2013,05,04,10,31,17.10
2013,05,04,10,32,17.00
2013,05,04,10,33,16.90
2013,05,04,10,34,16.90
2013,05,04,10,35,16.80
2013,05,04,10,36,16.80
2013,05,04,10,37,16.80
2013,05,04,10,38,16.80
2013,05,04,10,39,16.90
2013,05,04,10,40,16.90
2013,05,04,10,41,17.10
2013,05,04,10,42,17.10
2013,05,04,10,43,17.10
2013,05,04,10,44,17.20
2013,05,04,10,45,17.20
2013,05,04,10,46,17.30
2013,05,04,10,47,17.40
2013,05,04,10,48,17.50
2013,05,04,10,49,17.60
2013,05,04,10,50,17.60
2013,05,04,10,51,17.70
2013,05,04,10,52,17.70
2013,05,04,10,53,17.80
2013,05,04,10,54,17.70
2013,05,04,10,55,17.70
2013,05,04,10,56,17.70
2013,05,04,10,57,17.60
2013,05,04,10,58,17.70
2013,05,04,10,59,17.60
2013,05,04,11,00,17.60
2013,05,04,11,01,17.60
2013,05,04,11,02,17.70
2013,05,04,11,03,17.70
2013,05,04,11,04,17.80
2013,05,04,11,05,17.80
2013,05,04,11,06,17.80
2013,05,04,11,07,17.90
2013,05,04,11,08,18.00
2013,05,04,11,09,18.10
2013,05,04,11,10,18.10
2013,05,04,11,11,18.10
2013,05,04,11,12,18.00
2013,05,04,11,13,18.00
2013,05,04,11,14,18.10
2013,05,04,11,15,18.20
2013,05,04,11,16,18.20
2013,05,04,11,17,18.20
2013,05,04,11,18,18.30
2013,05,04,11,19,18.40
2013,05,04,11,20,18.50
2013,05,04,11,21,18.50
2013,05,04,11,22,18.50
2013,05,04,11,23,18.60
2013,05,04,11,24,18.70
2013,05,04,11,25,18.90
2013,05,04,11,26,19.00
2013,05,04,11,27,19.10
2013,05,04,11,28,19.20
2013,05,04,11,29,19.20
2013,05,04,11,30,19.10
2013,05,04,11,31,19.00
2013,05,04,11,32,18.90
2013,05,04,11,33,18.80
2013,05,04,11,34,18.80
2013,05,04,11,35,18.80
2013,05,04,11,36,18.70
2013,05,04,11,37,18.70
2013,05,04,11,38,18.70
2013,05,04,11,39,18.70
2013,05,04,11,40,18.60
2013,05,04,11,41,18.60
2013,05,04,11,42,18.70
2013,05,04,11,43,18.70
2013,05,04,11,44,18.80
2013,05,04,11,45,18.80
2013,05,04,11,46,18.80
2013,05,04,11,47,18.90
2013,05,04,11,48,18.80
2013,05,04,11,49,18.80
2013,05,04,11,50,18.90
2013,05,04,11,51,18.90
2013,05,04,11,52,18.90
2013,05,04,11,53,18.90
2013,05,04,11,54,19.00
2013,05,04,11,55,18.90
2013,05,04,11,56,18.90
2013,05,04,11,57,18.90
2013,05,04,11,58,18.90
2013,05,04,11,59,18.90
2013,05,04,12,00,18.90
2013,05,04,12,01,18.90
2013,05,04,12,02,18.90
2013,05,04,12,03,19.00
2013,05,04,12,04,19.10
2013,05,04,12,05,19.20
2013,05,04,12,06,19.20
2013,05,04,12,07,19.20
2013,05,04,12,08,19.20
2013,05,04,12,09,19.20
2013,05,04,12,10,19.20
2013,05,04,12,11,19.20
2013,05,04,12,12,19.20
2013,05,04,12,13,19.40
2013,05,04,12,14,19.50
2013,05,04,12,15,19.50
2013,05,04,12,16,19.40
2013,05,04,12,17,19.40
2013,05,04,12,18,19.40
2013,05,04,12,19,19.50
2013,05,04,12,20,19.60
2013,05,04,12,21,19.50
2013,05,04,12,22,19.40
2013,05,04,12,23,19.40
2013,05,04,12,24,19.50
2013,05,04,12,25,19.50
2013,05,04,12,26,19.60
2013,05,04,12,27,19.70
2013,05,04,12,28,19.70
2013,05,04,12,29,19.70
2013,05,04,12,30,19.70
2013,05,04,12,31,19.80
2013,05,04,12,32,19.80
2013,05,04,12,33,19.90
2013,05,04,12,34,19.80
2013,05,04,12,35,19.80
2013,05,04,12,36,19.80
2013,05,04,12,37,19.80
2013,05,04,12,38,19.70
2013,05,04,12,39,19.70
2013,05,04,12,40,19.60
2013,05,04,12,41,19.70
2013,05,04,12,42,19.70
2013,05,04,12,43,19.80
2013,05,04,12,44,20.00
2013,05,04,12,45,20.00
2013,05,04,12,46,20.10
2013,05,04,12,47,20.10
2013,05,04,12,48,20.10
2013,05,04,12,49,20.10
2013,05,04,12,50,20.20
2013,05,04,12,51,20.30
2013,05,04,12,52,20.30
2013,05,04,12,53,20.40
2013,05,04,12,54,20.50
2013,05,04,12,55,20.50
2013,05,04,12,56,20.50
2013,05,04,12,57,20.40
2013,05,04,12,58,20.40
2013,05,04,12,59,20.40
2013,05,04,13,00,20.50
2013,05,04,13,01,20.50
2013,05,04,13,02,20.50
2013,05,04,13,03,20.40
2013,05,04,13,04,20.40
2013,05,04,13,05,20.50
2013,05,04,13,06,20.50
2013,05,04,13,07,20.50
2013,05,04,13,08,20.50
2013,05,04,13,09,20.50
2013,05,04,13,10,20.60
2013,05,04,13,11,20.60
2013,05,04,13,12,20.60
2013,05,04,13,13,20.60
2013,05,04,13,14,20.50
2013,05,04,13,15,20.50
2013,05,04,13,16,20.40
2013,05,04,13,17,20.50
2013,05,04,13,18,20.50
2013,05,04,13,19,20.70
2013,05,04,13,20,20.70
2013,05,04,13,21,20.70
2013,05,04,13,22,20.70
2013,05,04,13,23,20.70
2013,05,04,13,24,20.80
2013,05,04,13,25,20.90
2013,05,04,13,26,20.90
2013,05,04,13,27,20.90
2013,05,04,13,28,20.80
2013,05,04,13,29,20.70
2013,05,04,13,30,20.70
2013,05,04,13,31,20.60
2013,05,04,13,32,20.60
2013,05,04,13,33,20.70
2013,05,04,13,34,20.80
2013,05,04,13,35,20.80
2013,05,04,13,36,20.70
2013,05,04,13,37,20.70
2013,05,04,13,38,20.70
2013,05,04,13,39,20.60
2013,05,04,13,40,20.60
2013,05,04,13,41,20.60
2013,05,04,13,42,20.60
2013,05,04,13,43,20.60
2013,05,04,13,44,20.60
2013,05,04,13,45,20.60
2013,05,04,13,46,20.70
2013,05,04,13,47,20.70
2013,05,04,13,48,20.60
2013,05,04,13,49,20.60
2013,05,04,13,50,20.60
2013,05,04,13,51,20.50
2013,05,04,13,52,20.40
2013,05,04,13,53,20.50
2013,05,04,13,54,20.50
2013,05,04,13,55,20.50
2013,05,04,13,56,20.50
2013,05,04,13,57,20.60
2013,05,04,13,58,20.60
2013,05,04,13,59,20.60
2013,05,04,14,00,20.70
2013,05,04,14,01,20.70
2013,05,04,14,02,20.60
2013,05,04,14,03,20.60
2013,05,04,14,04,20.60
2013,05,04,14,05,20.70
2013,05,04,14,06,20.80
2013,05,04,14,07,20.80
2013,05,04,14,08,20.80
2013,05,04,14,09,20.90
2013,05,04,14,10,20.90
2013,05,04,14,11,20.90
2013,05,04,14,12,21.00
2013,05,04,14,13,21.10
2013,05,04,14,14,21.20
2013,05,04,14,15,21.20
2013,05,04,14,16,21.20
2013,05,04,14,17,21.10
2013,05,04,14,18,21.10
2013,05,04,14,19,21.10
2013,05,04,14,20,21.20
2013,05,04,14,21,21.20
2013,05,04,14,22,21.30
2013,05,04,14,23,21.30
2013,05,04,14,24,21.30
2013,05,04,14,25,21.30
2013,05,04,14,26,21.40
2013,05,04,14,27,21.40
2013,05,04,14,28,21.40
2013,05,04,14,29,21.40
2013,05,04,14,30,21.50
2013,05,04,14,31,21.60
2013,05,04,14,32,21.70
2013,05,04,14,33,21.70
2013,05,04,14,34,21.60
2013,05,04,14,35,21.60
2013,05,04,14,36,21.60
2013,05,04,14,37,21.50
2013,05,04,14,38,21.40
2013,05,04,14,39,21.40
2013,05,04,14,40,21.40
2013,05,04,14,41,21.40
2013,05,04,14,42,21.50
2013,05,04,14,43,21.60
2013,05,04,14,44,21.80
2013,05,04,14,45,21.90
2013,05,04,14,46,21.90
2013,05,04,14,47,22.10
2013,05,04,14,48,22.20
2013,05,04,14,49,22.30
2013,05,04,14,50,22.40
2013,05,04,14,51,22.40
2013,05,04,14,52,22.50
2013,05,04,14,53,22.60
2013,05,04,14,54,22.60
2013,05,04,14,55,22.60
2013,05,04,14,56,22.50
2013,05,04,14,57,22.40
2013,05,04,14,58,22.30
2013,05,04,14,59,22.20
2013,05,04,15,00,22.20
2013,05,04,15,01,22.20
2013,05,04,15,02,22.20
2013,05,04,15,03,22.20
2013,05,04,15,04,22.20
2013,05,04,15,05,22.10
2013,05,04,15,06,22.10
2013,05,04,15,07,22.10
2013,05,04,15,08,22.10
2013,05,04,15,09,22.10
2013,05,04,15,10,22.10
2013,05,04,15,11,22.20
2013,05,04,15,12,22.30
2013,05,04,15,13,22.30
2013,05,04,15,14,22.30
2013,05,04,15,15,22.40
2013,05,04,15,16,22.40
2013,05,04,15,17,22.50
2013,05,04,15,18,22.60
2013,05,04,15,19,22.60
2013,05,04,15,20,22.50
2013,05,04,15,21,22.50
2013,05,04,15,22,22.60
2013,05,04,15,23,22.80
2013,05,04,15,24,22.90
2013,05,04,15,25,23.10
2013,05,04,15,26,23.10
2013,05,04,15,27,23.20
2013,05,04,15,28,23.20
2013,05,04,15,29,23.20
2013,05,04,15,30,23.20
2013,05,04,15,31,23.20
2013,05,04,15,32,23.20
2013,05,04,15,33,23.10
2013,05,04,15,34,23.10
2013,05,04,15,35,23.10
2013,05,04,15,36,23.20
2013,05,04,15,37,23.20
2013,05,04,15,38,23.20
2013,05,04,15,39,23.20
2013,05,04,15,40,23.10
2013,05,04,15,41,23.10
2013,05,04,15,42,23.10
2013,05,04,15,43,23.10
2013,05,04,15,44,23.20
2013,05,04,15,45,23.20
2013,05,04,15,46,23.20
2013,05,04,15,47,23.20
2013,05,04,15,48,23.30
2013,05,04,15,49,23.20
2013,05,04,15,50,23.10
2013,05,04,15,51,23.10
2013,05,04,15,52,23.20
2013,05,04,15,53,23.30
2013,05,04,15,54,23.40
2013,05,04,15,55,23.40
2013,05,04,15,56,23.40
2013,05,04,15,57,23.40
2013,05,04,15,58,23.40
2013,05,04,15,59,23.40
2013,05,04,16,00,23.40
2013,05,04,16,01,23.30
2013,05,04,16,02,23.30
2013,05,04,16,03,23.20
2013,05,04,16,04,23.20
2013,05,04,16,05,23.20
2013,05,04,16,06,23.20
2013,05,04,16,07,23.20
2013,05,04,16,08,23.20
2013,05,04,16,09,23.20
2013,05,04,16,10,23.30
2013,05,04,16,11,23.30
2013,05,04,16,12,23.30
2013,05,04,16,13,23.30
2013,05,04,16,14,23.30
2013,05,04,16,15,23.40
2013,05,04,16,16,23.40
2013,05,04,16,17,23.40
2013,05,04,16,18,23.40
2013,05,04,16,19,23.40
2013,05,04,16,20,23.40
2013,05,04,16,21,23.50
2013,05,04,16,22,23.60
2013,05,04,16,23,23.60
2013,05,04,16,24,23.70
2013,05,04,16,25,23.80
2013,05,04,16,26,23.80
2013,05,04,16,27,23.80
2013,05,04,16,28,23.80
2013,05,04,16,29,23.70
2013,05,04,16,30,23.70
2013,05,04,16,31,23.70
2013,05,04,16,32,23.70
2013,05,04,16,33,23.60
2013,05,04,16,34,23.50
2013,05,04,16,35,23.40
2013,05,04,16,36,23.40
2013,05,04,16,37,23.30
2013,05,04,16,38,23.30
2013,05,04,16,39,23.20
2013,05,04,16,40,23.20
2013,05,04,16,41,23.20
2013,05,04,16,42,23.20
2013,05,04,16,43,23.20
2013,05,04,16,44,23.20
2013,05,04,16,45,23.20
2013,05,04,16,46,23.20
2013,05,04,16,47,23.20
2013,05,04,16,48,23.20
2013,05,04,16,49,23.20
2013,05,04,16,50,23.20
2013,05,04,16,51,23.20
2013,05,04,16,52,23.10
2013,05,04,16,53,23.00
2013,05,04,16,54,22.90
2013,05,04,16,55,22.80
2013,05,04,16,56,22.70
2013,05,04,16,57,22.70
2013,05,04,16,58,22.70
2013,05,04,16,59,22.80
2013,05,04,17,00,22.80
2013,05,04,17,01,22.90
2013,05,04,17,02,23.00
2013,05,04,17,03,23.10
2013,05,04,17,04,23.20
2013,05,04,17,05,23.20
2013,05,04,17,06,23.20
2013,05,04,17,07,23.20
2013,05,04,17,08,23.20
2013,05,04,17,09,23.30
2013,05,04,17,10,23.40
2013,05,04,17,11,23.50
2013,05,04,17,12,23.60
2013,05,04,17,13,23.70
2013,05,04,17,14,23.80
2013,05,04,17,15,23.80
2013,05,04,17,16,23.90
2013,05,04,17,17,23.90
2013,05,04,17,18,23.90
2013,05,04,17,19,24.00
2013,05,04,17,20,24.10
2013,05,04,17,21,24.20
2013,05,04,17,22,24.30
2013,05,04,17,23,24.30
2013,05,04,17,24,24.30
2013,05,04,17,25,24.30
2013,05,04,17,26,24.20
2013,05,04,17,27,24.00
2013,05,04,17,28,23.80
2013,05,04,17,29,23.70
2013,05,04,17,30,23.60
2013,05,04,17,31,23.60
2013,05,04,17,32,23.60
2013,05,04,17,33,23.50
2013,05,04,17,34,23.50
2013,05,04,17,35,23.40
2013,05,04,17,36,23.50
2013,05,04,17,37,23.50
2013,05,04,17,38,23.50